Location: Chilton Park
(37.7711°N, 100.0276°W)
Time: 17:05:03
(UTC+00:00)

Cosmos 2227 Rocket - Pass Details

Date: 09 July 2022
Orbit: 840 x 844 km, 71.0° (Epoch: 18 August)

Event Time Altitude Azimuth Distance (km) Brightness Sun altitude
Exits shadow 07:15:29 27° 92° (E) 1,557 3.6 -29.5°
Drops below altitude 10° 07:19:38 10° 46° (NE) 2,467 5.2 -29.3°
Sets 07:22:24 0° 35° (NE) 3,406 6.3 -29.3°
